Vorticity
-2 -1 -0 2 4 4 5 4 5 8 13 18 24 30 36 41 41 38 34 29 27 25 22 17 12 10 8 4 0 -4 -9 -16 -18 -13 -4 5 2 1 0 1 0 -0 -0 0 -2 -6 -10 -11 -5 0 4 6 7 10 15 18 11 5 3 6 8 11 16 22 23 24 24 23 22
-5 -4 -2 2 4 5 6 6 9 13 16 20 21 23 25 28 32 35 38 42 46 47 47 45 39 33 27 22 13 4 -6 -16 -22 -18 -10 -0 1 2 3 4 2 1 -0 -1 -1 -2 -6 -10 -8 -5 -3 -5 -12 -11 -1 19 18 11 5 8 14 17 20 21 20 22 26 33 32
3 -0 -1 2 5 10 16 21 24 25 25 25 25 25 26 27 28 31 35 40 46 52 55 55 54 53 53 54 50 38 20 0 -13 -17 -13 -5 -2 1 4 7 7 5 2 -1 -2 -3 -4 -7 -10 -8 -7 -9 -22 -27 -14 22 32 29 21 21 21 20 19 18 16 19 27 38 36
25 14 6 4 13 22 29 30 28 25 22 19 20 23 24 24 15 10 11 20 30 37 42 43 43 46 51 59 65 65 56 36 13 -2 -9 -8 -7 -4 2 8 10 9 6 1 -4 -7 -8 -9 -12 -13 -11 -9 -19 -25 -13 30 43 42 33 23 9 3 4 12 17 24 32 41 32
29 20 14 16 24 27 25 20 18 15 13 11 13 16 17 15 6 -2 -4 3 12 19 23 24 27 30 35 42 49 54 56 52 39 22 4 -7 -5 3 13 20 13 8 3 -1 -7 -11 -13 -14 -15 -17 -17 -13 -16 -18 -4 35 42 38 25 9 -3 -4 5 19 22 23 24 27 22
29 25 23 24 21 15 10 7 7 7 7 6 7 8 10 9 4 0 -2 -0 4 9 14 17 21 24 27 29 28 27 28 32 39 30 13 -5 -2 5 13 21 20 18 15 10 6 3 -0 -2 -4 -9 -13 -15 -15 -15 -9 10 11 9 5 4 8 17 26 30 23 15 8 4 9
32 27 21 15 8 4 2 3 4 4 4 4 6 7 9 9 6 3 2 2 4 5 6 9 18 26 32 37 36 32 24 16 22 16 0 -20 -14 -5 10 31 50 61 66 66 59 52 44 38 30 21 11 -2 -9 -14 -14 -6 -3 -1 5 16 25 28 27 22 16 10 4 1 4
23 16 9 3 1 2 3 5 4 3 3 6 12 19 23 23 16 9 4 1 -2 -4 -4 -2 6 16 26 36 43 48 51 48 40 29 13 -5 4 19 35 50 62 70 76 77 76 72 66 58 54 52 45 24 2 -11 -10 8 29 37 34 26 18 9 4 3 6 6 6 5 6
8 4 2 2 5 7 8 6 1 0 4 15 23 29 31 29 22 15 10 6 1 -1 -3 -3 1 7 14 23 32 43 54 67 70 64 54 43 41 37 30 18 10 13 23 36 47 52 53 51 58 66 65 46 12 -6 -5 21 43 47 38 20 3 -5 -6 1 7 10 9 6 5
4 4 5 6 8 9 8 5 -1 3 12 24 23 21 18 16 14 12 12 12 13 14 14 13 13 14 15 16 19 24 31 40 48 50 46 39 31 24 16 7 -1 -2 4 17 28 34 39 42 55 64 65 53 22 3 -0 15 26 30 28 19 10 6 9 15 17 15 12 9 7
6 8 9 9 9 8 6 3 3 9 16 18 13 9 7 6 6 7 7 9 15 22 28 31 26 19 13 9 10 11 14 18 19 19 19 21 28 36 44 51 51 47 39 30 25 25 30 42 55 64 68 63 38 16 4 4 11 16 20 19 17 17 18 21 21 18 14 10 10
5 5 5 6 6 5 4 4 6 10 13 10 7 5 4 5 7 9 11 13 16 22 28 32 26 16 6 -2 -3 3 13 26 29 27 24 20 18 19 24 34 48 57 58 48 37 32 33 39 48 58 63 61 39 19 5 3 6 9 11 12 13 15 17 20 20 19 17 13 15
8 5 3 4 4 3 2 2 2 3 5 8 7 6 6 8 10 12 15 18 20 22 24 23 15 3 -9 -18 -14 -6 7 23 38 37 24 1 -10 -10 -4 4 11 22 32 35 26 16 9 6 13 20 26 29 22 15 9 7 6 4 4 5 7 11 15 18 19 18 17 17 20
12 9 8 9 9 8 6 4 1 -0 2 10 11 9 8 10 13 13 9 4 3 4 5 4 -3 -10 -15 -12 -2 5 11 17 25 23 12 -6 -10 -5 3 9 9 10 10 9 5 -0 -4 -3 2 6 9 13 14 14 12 9 5 3 2 1 4 10 16 17 16 14 14 16 21
16 17 17 19 19 19 17 16 13 8 6 10 8 5 4 7 13 9 -0 -11 -10 -6 -2 2 3 5 8 13 15 16 17 18 19 17 12 6 5 7 10 11 11 11 10 9 9 10 11 12 13 12 11 10 10 11 10 8 4 2 1 0 6 12 16 16 14 13 14 17 23
13 16 18 19 20 21 22 22 20 14 9 7 3 -1 -2 2 4 1 -2 -3 3 7 12 15 17 19 20 20 18 17 17 19 21 21 19 16 13 10 9 8 10 11 12 12 13 13 14 13 12 11 9 8 8 9 9 7 5 3 2 2 8 13 16 17 20 23 25 27 30
7 8 10 12 13 14 15 16 14 9 4 1 -0 -1 1 4 4 5 6 8 10 12 13 14 15 15 16 18 18 19 19 22 24 25 24 22 17 13 10 10 10 11 12 13 13 13 13 13 11 10 9 8 9 9 9 9 7 6 4 3 7 11 15 21 26 27 28 30 32
4 4 5 5 5 6 6 7 6 3 1 0 2 5 7 8 9 9 10 10 11 12 12 12 12 13 15 16 17 17 17 18 21 24 25 25 23 19 16 14 13 13 13 13 14 14 13 12 11 10 9 9 10 11 10 10 9 6 5 4 7 11 16 21 22 20 20 21 23
4 4 3 3 2 2 2 2 2 2 3 3 5 6 7 8 9 9 9 10 10 10 10 9 9 10 12 13 13 12 11 10 11 13 16 18 19 20 19 18 16 15 15 16 16 15 14 12 11 10 9 10 12 12 12 11 9 8 9 12 13 15 17 19 16 14 12 13 12
6 5 5 4 3 2 2 2 1 2 3 3 3 3 4 5 6 7 8 8 8 7 6 6 6 6 7 7 8 8 7 6 5 4 5 6 8 10 11 12 13 13 14 15 16 16 15 13 12 11 11 13 14 14 13 10 9 12 15 19 18 18 19 18 15 12 10 8 6
10 9 9 8 7 6 5 5 4 3 3 3 2 2 3 4 5 5 6 6 6 5 5 4 4 4 4 5 5 5 6 6 4 3 2 2 2 3 4 5 6 7 8 10 13 14 15 15 14 14 14 15 16 15 13 12 12 15 17 19 17 16 14 12 10 9 7 5 4
13 13 12 11 10 9 9 9 8 7 6 6 5 5 5 5 5 5 5 5 5 5 5 4 4 4 4 4 5 6 7 7 5 4 3 2 2 2 3 4 4 4 5 6 8 10 12 14 15 16 17 17 16 15 14 13 16 19 21 22 20 15 9 3 1 1 2 4 7
9 10 11 10 10 10 10 10 10 9 9 8 8 8 7 7 7 6 6 6 5 5 5 4 4 4 4 5 6 7 8 8 7 5 3 2 2 3 3 5 5 5 5 5 6 7 9 12 14 16 17 16 14 12 11 12 15 18 22 26 27 25 20 13 7 6 8 12 15
-1 2 4 6 6 6 7 7 7 8 8 8 8 8 8 8 8 8 8 7 7 6 5 5 5 5 5 6 6 7 8 8 7 6 4 4 4 4 4 5 6 6 6 5 6 6 7 9 11 13 14 14 11 8 7 7 9 11 13 17 21 24 25 23 20 18 17 17 14
-8 -7 -5 -2 0 2 3 4 4 5 5 6 7 8 8 9 9 9 9 9 9 8 7 6 6 6 6 7 7 7 7 6 6 6 6 6 5 5 5 5 5 5 6 6 6 6 6 7 8 9 10 11 10 8 6 4 4 5 6 7 9 11 13 15 15 14 12 10 7
8 6 4 3 3 3 4 4 4 4 4 4 5 6 7 7 7 8 8 9 9 9 8 7 7 7 7 7 8 8 7 6 5 5 6 7 7 7 6 5 5 5 5 5 5 5 6 6 6 6 7 7 8 8 7 6 4 3 3 3 4 5 5 5 4 3 2 2 2
12 12 11 9 8 6 5 4 4 4 4 4 4 4 5 5 5 5 6 7 7 8 8 8 8 8 7 7 8 9 9 7 6 5 6 7 8 8 8 7 6 5 5 5 5 5 5 5 5 5 5 5 5 5 6 7 7 6 5 4 4 4 5 4 4 3 2 1 2
5 6 6 6 5 5 4 4 4 4 4 4 5 5 5 5 4 4 4 4 4 5 6 7 7 7 7 7 8 9 9 9 7 6 6 7 8 8 9 8 7 7 6 6 6 5 5 4 5 5 5 4 4 3 3 4 5 6 7 7 6 6 6 7 7 8 7 7 5
1 1 1 2 3 3 4 5 5 5 5 5 6 6 7 7 7 6 5 4 3 3 2 3 4 5 6 7 8 8 8 9 8 7 7 7 8 9 9 9 9 8 8 8 7 6 5 5 5 5 5 5 4 4 4 4 5 5 5 5 5 5 6 7 9 10 9 8 4
2 2 2 3 3 4 5 5 5 5 5 5 6 7 7 9 9 9 9 8 7 5 3 1 1 2 3 4 4 5 6 7 7 7 7 7 8 9 9 9 9 9 9 9 9 8 7 6 5 5 5 5 5 5 5 6 6 7 6 6 4 4 4 5 6 6 5 3 1
5 5 5 5 5 5 6 6 5 5 5 5 5 6 7 8 10 11 12 12 11 10 8 5 3 2 1 1 2 3 3 4 5 5 6 6 6 7 8 8 8 8 8 8 8 8 8 7 7 7 7 6 6 6 6 6 7 8 9 9 8 6 5 3 1 -0 -1 -1 2
5 6 7 7 7 7 7 7 6 5 5 4 4 4 5 7 9 11 13 14 13 13 12 11 9 6 4 3 2 2 2 2 3 3 4 4 4 4 5 5 6 6 6 6 7 8 8 8 9 9 8 8 7 7 7 6 7 7 8 8 8 7 6 4 1 -0 -1 0 2
3 5 6 7 8 8 9 8 7 7 6 5 4 4 5 6 8 10 12 13 14 14 14 14 13 11 9 7 6 4 4 3 3 3 3 3 2 2 3 3 4 4 5 5 6 7 8 9 9 9 9 9 8 8 7 7 7 7 7 6 6 6 6 5 5 5 6 7 8
1 2 3 5 7 8 9 10 10 9 8 6 6 5 5 6 7 9 11 12 13 14 14 15 14 14 13 12 10 9 7 6 6 5 4 3 3 2 2 2 3 4 4 5 5 6 6 7 8 8 8 8 8 7 7 7 7 6 6 6 7 7 7 7 8 9 10 11 11
-0 -0 0 1 3 4 6 8 9 9 10 9 8 7 6 6 7 8 10 11 12 13 13 14 14 14 14 14 13 13 12 11 10 8 7 6 5 4 4 4 4 4 4 4 4 4 4 4 5 5 6 6 6 6 6 7 7 8 8 9 9 9 9 9 10 10 11 11 11
-0 -1 -1 -0 0 1 2 3 4 6 7 9 9 9 8 8 8 8 9 10 11 12 12 13 13 13 14 14 14 14 14 13 13 12 11 10 9 8 7 6 6 5 4 3 3 3 3 3 3 3 4 4 5 6 7 8 8 9 9 9 10 10 10 10 10 11 11 11 11
5 3 1 1 1 1 1 1 1 2 3 5 7 8 9 9 9 9 9 9 10 11 12 12 12 12 13 13 13 14 14 14 14 14 13 13 12 11 10 9 7 6 5 4 3 3 3 3 3 3 3 4 6 7 8 8 9 9 9 9 9 10 10 10 11 11 11 11 11
16 13 10 8 6 6 6 6 5 5 4 3 4 5 7 8 9 9 10 10 10 11 11 11 12 12 12 12 12 12 13 13 13 13 14 14 14 13 11 10 9 8 7 6 5 5 5 4 4 4 4 5 6 7 8 8 8 9 9 9 9 9 10 10 11 11 11 11 11
22 22 20 17 14 12 11 11 12 11 10 9 7 6 6 7 9 10 10 10 10 11 11 11 12 12 12 12 11 11 12 12 12 13 13 13 13 13 12 11 10 10 9 8 8 7 7 6 6 6 6 6 6 7 7 8 8 8 9 9 9 9 10 11 11 11 11 11 11
20 21 21 20 18 17 15 15 15 16 16 15 14 12 10 8 9 9 10 10 11 11 12 12 12 12 12 12 12 12 11 11 12 12 12 12 12 12 12 12 12 11 11 11 10 9 9 8 8 7 7 7 7 7 8 8 8 8 9 9 9 10 10 11 11 11 11 10 10
13 14 16 17 16 16 17 17 16 17 18 18 18 17 14 12 11 10 10 11 12 13 13 13 13 12 12 12 12 12 12 12 12 11 11 11 11 12 12 12 12 13 13 12 12 11 11 10 10 9 9 8 8 8 8 8 8 8 9 9 9 10 10 11 11 11 10 10 9
Height
3072 3073 3074 3075 3076 3077 3078 3078 3079 3079 3080 3080 3081 3082 3083 3084 3084 3086 3087 3088 3088 3088 3088 3089 3089 3089 3089 3089 3088 3088 3089 3090 3092 3093 3094 3096 3097 3098 3099 3100 3100 3101 3102 3103 3104 3105 3105 3106 3106 3107 3108 3109 3110 3110 3111 3111 3111 3110 3110 3111 3111 3110 3109 3108 3108 3108 3107 3108 3109
3069 3070 3072 3073 3074 3075 3075 3075 3075 3076 3077 3078 3079 3079 3080 3081 3082 3083 3084 3084 3084 3084 3084 3085 3085 3085 3085 3084 3084 3084 3084 3086 3088 3089 3090 3092 3094 3094 3095 3096 3097 3098 3099 3099 3100 3101 3102 3102 3103 3104 3105 3106 3107 3107 3108 3108 3108 3108 3108 3108 3108 3107 3106 3106 3106 3105 3104 3104 3104
3065 3067 3069 3071 3071 3072 3072 3073 3073 3074 3075 3075 3076 3077 3078 3079 3079 3080 3081 3081 3081 3080 3080 3080 3080 3081 3081 3080 3080 3079 3080 3082 3084 3085 3087 3088 3089 3091 3092 3092 3093 3094 3094 3095 3096 3097 3097 3098 3099 3100 3101 3103 3104 3104 3104 3104 3105 3105 3105 3105 3105 3104 3104 3104 3104 3103 3101 3100 3101
3062 3064 3067 3068 3069 3069 3070 3071 3072 3072 3073 3073 3074 3074 3075 3076 3077 3077 3077 3077 3077 3076 3076 3076 3076 3076 3077 3077 3076 3075 3076 3077 3079 3081 3083 3084 3085 3086 3087 3088 3089 3089 3090 3090 3091 3092 3093 3094 3095 3096 3097 3099 3100 3101 3102 3102 3103 3103 3103 3102 3101 3101 3101 3102 3102 3100 3098 3097 3098
3059 3062 3064 3066 3067 3068 3069 3069 3070 3070 3071 3071 3071 3072 3072 3072 3073 3074 3074 3074 3073 3073 3073 3074 3073 3073 3073 3074 3073 3073 3073 3074 3075 3077 3079 3080 3082 3082 3083 3084 3084 3084 3085 3086 3087 3088 3088 3089 3090 3091 3093 3095 3097 3099 3100 3100 3101 3101 3100 3099 3098 3098 3099 3099 3100 3099 3097 3096 3097
3058 3060 3063 3064 3066 3066 3067 3068 3068 3069 3069 3069 3069 3069 3069 3069 3069 3070 3070 3070 3070 3070 3071 3072 3072 3071 3071 3071 3071 3071 3071 3071 3072 3073 3075 3077 3078 3079 3080 3080 3080 3081 3082 3082 3083 3083 3084 3084 3084 3085 3088 3092 3094 3097 3099 3099 3098 3098 3097 3095 3095 3096 3096 3097 3097 3097 3096 3095 3096
3057 3059 3062 3063 3064 3064 3065 3066 3066 3067 3067 3067 3067 3067 3067 3067 3067 3067 3067 3068 3068 3068 3069 3070 3070 3070 3069 3069 3069 3069 3069 3068 3068 3069 3071 3074 3075 3076 3077 3078 3079 3079 3079 3079 3079 3079 3079 3078 3077 3078 3082 3088 3091 3094 3095 3095 3095 3094 3093 3093 3093 3094 3095 3095 3095 3095 3095 3094 3094
3058 3059 3061 3062 3063 3063 3064 3064 3065 3065 3065 3065 3065 3065 3065 3065 3065 3065 3066 3066 3066 3066 3067 3068 3068 3068 3067 3067 3067 3067 3066 3065 3064 3065 3068 3070 3072 3074 3075 3076 3077 3077 3076 3076 3076 3076 3075 3074 3072 3072 3075 3081 3086 3089 3092 3093 3092 3091 3091 3091 3092 3093 3093 3093 3093 3094 3094 3093 3093
3057 3058 3059 3060 3061 3062 3062 3063 3063 3063 3063 3064 3063 3063 3063 3063 3064 3064 3064 3065 3065 3065 3065 3065 3064 3064 3064 3064 3064 3064 3064 3063 3063 3064 3066 3068 3070 3072 3073 3074 3074 3074 3074 3073 3073 3073 3073 3072 3069 3068 3069 3074 3080 3085 3089 3090 3089 3089 3089 3090 3090 3090 3090 3090 3091 3091 3091 3091 3091
3055 3056 3057 3058 3059 3059 3060 3060 3060 3061 3061 3060 3061 3061 3061 3062 3062 3063 3063 3063 3063 3063 3063 3062 3062 3062 3062 3062 3062 3062 3062 3061 3062 3063 3064 3066 3067 3069 3069 3069 3070 3070 3070 3070 3071 3071 3070 3069 3067 3065 3066 3069 3075 3081 3085 3087 3086 3086 3086 3087 3087 3087 3087 3088 3088 3088 3089 3089 3089
3052 3053 3054 3055 3056 3057 3058 3058 3058 3059 3059 3059 3059 3059 3060 3060 3061 3061 3061 3061 3061 3060 3059 3059 3059 3059 3060 3060 3060 3060 3061 3061 3061 3061 3063 3064 3065 3066 3067 3067 3066 3066 3066 3067 3067 3067 3066 3065 3064 3064 3065 3067 3073 3078 3081 3083 3083 3083 3084 3084 3084 3084 3084 3084 3085 3085 3086 3087 3087
3050 3051 3052 3053 3054 3054 3055 3056 3056 3057 3057 3058 3058 3058 3059 3059 3059 3059 3059 3059 3058 3058 3057 3057 3057 3057 3057 3057 3057 3058 3058 3059 3059 3060 3061 3062 3063 3064 3064 3064 3064 3064 3064 3064 3064 3064 3064 3064 3064 3064 3065 3068 3072 3075 3077 3078 3079 3079 3080 3080 3081 3082 3082 3082 3082 3083 3083 3084 3085
3049 3050 3050 3051 3052 3052 3053 3054 3054 3055 3055 3056 3056 3056 3057 3057 3057 3058 3057 3057 3057 3056 3056 3056 3056 3055 3055 3055 3056 3057 3057 3058 3058 3059 3059 3060 3061 3062 3063 3063 3063 3063 3063 3063 3063 3063 3063 3064 3064 3065 3066 3068 3070 3072 3073 3074 3075 3076 3077 3078 3078 3079 3079 3079 3079 3080 3080 3081 3082
3049 3049 3050 3051 3051 3051 3052 3053 3053 3053 3053 3054 3054 3054 3054 3055 3055 3056 3056 3055 3055 3055 3055 3055 3054 3054 3054 3055 3055 3056 3056 3057 3057 3058 3058 3059 3059 3060 3060 3061 3061 3062 3062 3062 3063 3062 3062 3062 3063 3064 3065 3066 3068 3069 3070 3071 3073 3074 3074 3075 3076 3076 3077 3077 3077 3078 3078 3078 3079
3047 3048 3049 3049 3050 3050 3051 3051 3051 3052 3052 3052 3052 3052 3053 3053 3053 3054 3054 3054 3054 3054 3054 3053 3053 3053 3053 3054 3054 3054 3055 3055 3056 3056 3057 3057 3058 3058 3058 3059 3059 3060 3060 3061 3061 3062 3062 3062 3062 3063 3063 3064 3065 3066 3068 3069 3070 3072 3073 3074 3074 3074 3074 3075 3075 3076 3076 3077 3077
3045 3046 3047 3048 3048 3049 3049 3049 3050 3050 3050 3050 3050 3051 3051 3051 3051 3052 3052 3052 3052 3052 3052 3052 3052 3052 3052 3052 3052 3053 3053 3054 3054 3054 3055 3055 3056 3056 3056 3056 3057 3058 3058 3059 3060 3060 3061 3061 3061 3062 3062 3063 3064 3064 3066 3067 3069 3070 3071 3072 3072 3072 3072 3073 3074 3074 3075 3075 3076
3044 3045 3045 3046 3047 3047 3047 3048 3048 3049 3049 3049 3049 3049 3050 3050 3050 3050 3050 3051 3051 3051 3051 3051 3051 3050 3050 3051 3051 3051 3051 3051 3052 3052 3053 3053 3054 3054 3054 3054 3055 3055 3056 3057 3058 3058 3059 3059 3060 3060 3060 3061 3062 3063 3064 3066 3067 3069 3069 3070 3071 3071 3071 3071 3072 3073 3073 3073 3073
3043 3044 3044 3045 3045 3046 3046 3047 3047 3047 3048 3048 3048 3048 3049 3049 3049 3049 3049 3049 3049 3049 3049 3049 3049 3049 3049 3049 3050 3050 3050 3050 3050 3050 3051 3051 3052 3052 3052 3053 3053 3054 3054 3055 3056 3056 3057 3058 3058 3058 3059 3059 3060 3062 3063 3064 3065 3067 3068 3068 3069 3069 3070 3070 3070 3071 3071 3071 3071
3042 3042 3043 3043 3044 3044 3044 3045 3045 3046 3046 3046 3046 3047 3047 3047 3047 3047 3047 3048 3048 3048 3048 3048 3048 3049 3049 3049 3049 3049 3049 3050 3049 3050 3050 3050 3050 3050 3050 3051 3051 3052 3052 3053 3054 3054 3055 3055 3056 3056 3057 3058 3059 3060 3061 3062 3064 3064 3065 3066 3067 3067 3068 3068 3068 3068 3069 3069 3069
3041 3041 3041 3042 3042 3043 3043 3043 3043 3044 3044 3045 3045 3046 3046 3046 3046 3046 3046 3046 3047 3047 3047 3047 3047 3047 3048 3048 3048 3049 3049 3049 3049 3049 3049 3049 3049 3049 3049 3049 3050 3050 3051 3051 3052 3052 3053 3054 3054 3055 3055 3056 3057 3058 3059 3060 3061 3062 3063 3064 3065 3065 3065 3065 3065 3066 3066 3067 3067
3039 3040 3040 3040 3041 3041 3041 3041 3042 3042 3042 3043 3043 3044 3044 3044 3044 3044 3044 3045 3045 3045 3045 3045 3046 3046 3046 3047 3047 3047 3048 3048 3048 3048 3048 3048 3048 3048 3048 3048 3048 3049 3049 3050 3050 3051 3051 3052 3053 3053 3054 3054 3055 3056 3057 3058 3059 3060 3061 3062 3062 3063 3063 3063 3064 3064 3064 3065 3065
3038 3038 3039 3039 3039 3039 3040 3040 3040 3040 3041 3041 3041 3042 3042 3043 3043 3043 3043 3043 3044 3044 3044 3044 3044 3044 3045 3045 3046 3046 3046 3046 3046 3046 3046 3046 3046 3046 3047 3047 3047 3047 3048 3049 3049 3050 3050 3051 3051 3052 3052 3053 3054 3054 3055 3057 3058 3058 3059 3059 3059 3060 3060 3060 3061 3061 3062 3063 3063
3037 3037 3037 3037 3038 3038 3038 3039 3039 3039 3039 3039 3040 3040 3040 3040 3041 3041 3041 3041 3042 3042 3042 3042 3042 3043 3043 3043 3044 3044 3044 3044 3044 3044 3044 3044 3044 3045 3045 3045 3046 3046 3047 3047 3048 3048 3049 3049 3050 3051 3051 3052 3052 3053 3054 3054 3055 3055 3056 3056 3057 3057 3058 3058 3059 3059 3060 3060 3061
3035 3035 3035 3036 3036 3037 3037 3037 3038 3038 3038 3038 3038 3038 3039 3039 3039 3039 3039 3039 3039 3040 3040 3040 3040 3041 3041 3041 3041 3042 3042 3042 3042 3042 3042 3043 3043 3043 3044 3044 3044 3044 3045 3046 3046 3047 3048 3048 3049 3049 3050 3050 3051 3051 3052 3053 3053 3054 3054 3055 3055 3055 3056 3056 3057 3057 3058 3059 3059
3033 3033 3033 3034 3034 3034 3035 3035 3035 3036 3036 3036 3036 3036 3036 3037 3037 3037 3037 3037 3038 3038 3038 3038 3039 3039 3039 3039 3039 3039 3040 3040 3040 3040 3040 3040 3041 3041 3042 3042 3043 3043 3044 3044 3045 3046 3046 3047 3048 3048 3049 3049 3049 3050 3050 3051 3051 3052 3053 3053 3053 3054 3054 3054 3055 3056 3056 3057 3058
3031 3031 3031 3031 3032 3032 3032 3033 3033 3034 3034 3034 3034 3034 3034 3034 3035 3035 3035 3035 3035 3036 3036 3036 3036 3036 3037 3037 3037 3037 3037 3038 3038 3038 3038 3038 3039 3039 3039 3040 3041 3041 3042 3043 3043 3044 3045 3045 3046 3047 3047 3048 3048 3049 3049 3049 3050 3050 3051 3051 3051 3052 3053 3053 3054 3054 3055 3056 3056
3029 3029 3029 3030 3030 3030 3030 3031 3031 3031 3031 3031 3032 3032 3032 3032 3033 3033 3033 3033 3033 3033 3034 3034 3033 3034 3034 3034 3035 3035 3035 3035 3036 3036 3036 3036 3036 3037 3037 3038 3039 3039 3040 3041 3042 3042 3043 3043 3044 3044 3045 3046 3046 3047 3047 3048 3048 3049 3049 3049 3049 3050 3051 3051 3052 3053 3053 3054 3054
3028 3028 3028 3028 3028 3028 3028 3028 3029 3029 3029 3029 3029 3029 3029 3029 3030 3030 3030 3031 3031 3031 3031 3031 3031 3031 3032 3032 3032 3032 3033 3033 3034 3034 3034 3034 3034 3034 3035 3035 3036 3037 3038 3039 3039 3040 3040 3041 3042 3042 3043 3044 3044 3045 3045 3045 3046 3047 3047 3047 3048 3048 3049 3049 3050 3050 3051 3052 3052
3026 3026 3026 3026 3026 3026 3026 3026 3026 3026 3026 3026 3026 3026 3027 3027 3027 3027 3028 3028 3028 3029 3029 3029 3029 3029 3029 3029 3029 3030 3030 3031 3031 3031 3032 3032 3032 3032 3033 3033 3034 3034 3035 3036 3037 3038 3038 3039 3039 3040 3041 3041 3042 3042 3043 3043 3044 3044 3045 3045 3046 3046 3047 3047 3048 3048 3049 3049 3050
3024 3024 3024 3024 3024 3024 3024 3024 3024 3024 3024 3024 3024 3024 3024 3024 3024 3024 3024 3025 3025 3025 3026 3026 3027 3027 3027 3027 3027 3028 3028 3028 3029 3029 3029 3029 3029 3030 3030 3031 3031 3032 3033 3034 3034 3035 3035 3036 3037 3037 3038 3039 3039 3040 3040 3041 3041 3042 3042 3043 3044 3044 3045 3045 3046 3046 3047 3047 3048
3022 3022 3021 3021 3021 3021 3021 3021 3021 3021 3021 3021 3021 3021 3021 3021 3021 3021 3022 3022 3022 3022 3023 3023 3024 3024 3024 3024 3024 3025 3025 3025 3026 3026 3027 3027 3027 3027 3028 3028 3029 3029 3030 3031 3032 3032 3033 3033 3034 3034 3035 3036 3036 3037 3037 3038 3039 3039 3040 3040 3041 3041 3042 3043 3043 3044 3044 3045 3045
3019 3019 3019 3019 3019 3019 3018 3018 3018 3018 3018 3018 3018 3018 3018 3019 3019 3019 3019 3019 3019 3019 3020 3020 3020 3020 3021 3021 3022 3022 3022 3023 3023 3024 3024 3024 3024 3025 3025 3026 3026 3027 3027 3028 3029 3029 3029 3030 3031 3032 3032 3033 3033 3034 3034 3035 3036 3036 3037 3037 3038 3039 3039 3040 3040 3041 3042 3043 3043
3016 3016 3016 3016 3016 3016 3016 3016 3016 3016 3016 3016 3016 3016 3016 3016 3016 3016 3016 3016 3016 3016 3016 3017 3017 3017 3018 3018 3019 3019 3019 3019 3020 3021 3021 3021 3022 3022 3022 3023 3023 3024 3024 3025 3025 3026 3026 3027 3028 3029 3029 3029 3030 3031 3031 3032 3033 3033 3034 3034 3035 3036 3036 3037 3037 3038 3039 3040 3040
3014 3014 3013 3013 3013 3013 3013 3013 3013 3013 3013 3013 3013 3013 3013 3013 3013 3013 3013 3013 3013 3013 3014 3014 3014 3014 3014 3015 3015 3015 3016 3016 3017 3018 3018 3018 3019 3019 3019 3020 3020 3021 3022 3022 3022 3023 3023 3024 3025 3025 3026 3027 3027 3028 3029 3029 3029 3030 3031 3031 3032 3033 3034 3034 3035 3035 3036 3037 3037
3011 3011 3010 3010 3010 3010 3010 3010 3010 3010 3010 3010 3010 3010 3010 3010 3010 3010 3010 3010 3010 3011 3010 3010 3011 3011 3011 3011 3012 3012 3013 3013 3014 3014 3014 3015 3015 3016 3016 3017 3017 3018 3019 3019 3019 3019 3020 3021 3022 3023 3023 3024 3025 3025 3025 3026 3026 3027 3028 3028 3029 3029 3030 3031 3032 3032 3033 3034 3034
3008 3008 3008 3007 3007 3007 3007 3007 3007 3007 3007 3007 3007 3007 3007 3007 3007 3007 3008 3008 3008 3008 3008 3008 3008 3008 3008 3008 3009 3009 3009 3010 3010 3011 3011 3012 3012 3013 3013 3014 3014 3015 3016 3017 3016 3017 3017 3018 3019 3019 3020 3021 3022 3022 3022 3023 3023 3024 3024 3025 3026 3026 3027 3028 3029 3030 3030 3031 3032
3004 3004 3004 3004 3004 3004 3004 3004 3004 3004 3004 3004 3004 3004 3004 3004 3004 3004 3004 3005 3005 3005 3004 3005 3005 3005 3005 3005 3005 3006 3006 3006 3007 3007 3008 3008 3009 3009 3010 3010 3011 3012 3013 3013 3013 3014 3014 3015 3016 3016 3017 3018 3018 3019 3019 3019 3020 3020 3021 3022 3023 3024 3024 3025 3026 3027 3028 3028 3029
3001 3001 3001 3001 3001 3001 3001 3001 3001 3001 3001 3001 3001 3001 3001 3001 3001 3001 3001 3002 3002 3002 3001 3002 3002 3002 3002 3002 3002 3003 3003 3003 3004 3004 3004 3005 3005 3006 3006 3007 3008 3009 3009 3010 3010 3010 3011 3012 3012 3013 3014 3014 3015 3015 3016 3016 3017 3017 3018 3019 3019 3020 3021 3022 3023 3024 3024 3025 3026
2998 2997 2997 2997 2997 2997 2997 2997 2997 2997 2997 2998 2998 2998 2998 2998 2998 2998 2998 2998 2999 2998 2998 2999 2999 2999 2999 2999 2999 2999 3000 3000 3000 3001 3001 3001 3002 3002 3003 3003 3004 3005 3005 3006 3007 3007 3008 3008 3009 3009 3010 3011 3011 3012 3013 3013 3014 3014 3015 3015 3016 3017 3018 3019 3020 3021 3022 3023 3024
2994 2994 2994 2993 2993 2993 2993 2994 2994 2993 2994 2994 2994 2994 2994 2994 2994 2994 2995 2995 2995 2995 2995 2995 2995 2996 2996 2996 2996 2996 2996 2997 2997 2997 2998 2998 2998 2999 2999 2999 3000 3001 3001 3002 3003 3003 3004 3004 3005 3006 3007 3007 3008 3009 3009 3010 3010 3011 3012 3012 3013 3014 3015 3016 3017 3018 3019 3020 3021
2991 2991 2990 2990 2989 2989 2990 2990 2990 2990 2990 2990 2990 2990 2990 2990 2990 2991 2991 2991 2991 2992 2992 2992 2992 2992 2993 2993 2993 2993 2993 2993 2994 2994 2994 2995 2995 2995 2996 2996 2996 2997 2998 2998 2999 2999 3000 3001 3001 3002 3003 3004 3004 3005 3006 3007 3007 3008 3008 3009 3010 3011 3012 3013 3014 3015 3016 3018 3019